Location: Karaa?a�
(36.7158°N, 30.4165°E)
Time: 08:51:01
(UTC+00:00)

CZ-2D R/B - Pass Details

Date: 09 April 2020
Orbit: 791 x 845 km, 98.7° (Epoch: 31 May)

Event Time Altitude Azimuth Distance (km) Brightness Sun altitude
Rises 23:17:29 0° 17° (NNE) 3,412 6.2 -41.7°
Reaches altitude 10° 23:19:53 10° 20° (NNE) 2,473 5.3 -41.5°
Enters shadow 23:21:40 21° 26° (NNE) 1,809 4.4 -41.3°
